Location: Goettingen
(51.5300°N, 9.9433°E)
Time: 17:47:27
(UTC+01:00)

ISS - Pass Details

Date: 24 January 2020
Orbit: 415 x 421 km, 51.6° (Epoch: 18 January)

Event Time Altitude Azimuth Distance (km) Brightness Sun altitude
Rises 19:59:22 0° 257° (WSW) 2,362 1.2 -28.4°
Reaches altitude 10° 20:01:28 10° 257° (WSW) 1,498 -0.1 -28.7°
Enters shadow 20:02:20 17° 256° (WSW) 1,145 -0.9 -28.8°
